Meath Environmental Platform

Observations

Time Sensor AQI SAQ Temp °C Hum % Pres Pa CO μg/m³ H₂S μg/m³ NO μg/m³ NO₂ μg/m³ O₃ μg/m³ SO₂ μg/m³ CO₂e PPM VOC PPM PM1 μg/m³ PM2.5 μg/m³ PM4 μg/m³ PM10 μg/m³ TPS µm
Wednesday 12 August 2026
20:34 Trim Market St 3 28.9 42 65,564 0 0 0.56 13.43 78.84 0 0.71 3.34 3.67
20:33 Trim Market St 3 28.9 42 65,578 0 0.7 0.57 15.73 79.31 0 2.14 4.4 4.84
20:32 Trim Market St 3 29 41 65,629 0 1.47 0.55 20.08 78.34 0 2.14 4.93 5.93
20:32 Trim Patrick St 3 29.2 42 69,326 0 19.46 0.52 19.9 68.49 15.65 4.57 10.02 11.02
20:31 Trim Market St 3 29 41 65,666 0 0 0.55 14.75 78.45 0 0.71 3.88 4.26
20:31 Trim Patrick St 3 29.3 42 69,322 0 20.82 0.52 22.25 64.03 15.95 4.57 9.24 10.17
20:30 Trim Market St 3 29.1 41 65,678 0 0.93 0.55 16.35 78.87 0 3.56 5.99 6.73
20:30 Trim Patrick St 3 29.3 42 69,338 0 19.91 0.52 20.13 70.68 15.5 3.71 10.03 11.03
20:29 Trim Patrick St 3 29.4 42 69,332 0 19.66 0.52 20.04 71.95 15.38 3.71 9.26 10.18
20:28 Trim Patrick St 4 29.5 42 69,330 0 21 0.53 22.89 72.86 16.08 4.57 10.04 11.04
20:27 Trim Market St 3 29.2 41 65,678 0 0 0.55 13.5 77.04 0 2.85 5.48 6.73
20:27 Trim Patrick St 3 29.5 42 69,322 0 18.93 0.56 19.94 76.81 16.18 3.71 8.51 9.36
20:26 Trim Patrick St 4 29.6 41 69,341 0 19.11 0.53 18.36 68.87 15.92 4.57 10.11 11.12
20:25 Trim Market St 3 29.2 41 65,719 0 0 0.56 16.41 74.82 0 2.14 4.43 5.13
20:25 Trim Patrick St 3 29.6 41 69,336 0 18.31 0.58 18.73 65.59 16.03 3.71 10.1 11.11
20:24 Trim Market St 3 29.3 41 65,744 0 0 0.54 15.16 72.52 0 1.43 4.43 4.87
20:24 Trim Patrick St 3 29.7 42 69,359 0 20.07 0.57 24.86 62.47 15.43 4.57 10.86 11.94
20:23 Trim Patrick St 3 29.8 41 69,357 0 18.35 0.53 25.01 62.6 15.48 5.43 10.11 11.12
20:22 Trim Patrick St 3 29.8 41 69,359 0 20.47 0.51 26.7 65.02 16.08 3.71 10.11 11.12
20:21 Trim Patrick St 3 29.9 41 69,361 0 19.69 0.52 28.48 60.17 15.91 4.57 10.14 11.15